Location: Township of Marena
(38.1747°N, 99.6798°W)
Time: 03:16:53
(UTC+00:00)

Aureole 3 Rocket - Pass Details

Date: 26 October 2020
Orbit: 399 x 1739 km, 82.5° (Epoch: 24 November)

Event Time Altitude Azimuth Distance (km) Brightness Sun altitude
Rises 01:10:33 0° 195° (SSW) 2,428 6.4 -17.1°
Reaches altitude 10° 01:12:23 10° 199° (SSW) 1,645 5.5 -17.4°
Maximum altitude 01:15:51 60° 280° (W) 647 3.4 -18.1°
Drops below altitude 10° 01:20:29 10° 1° (N) 2,189 5.8 -19.0°
Sets 01:23:15 0° 5° (N) 3,336 6.8 -19.6°
